Theta_e
307 307 307 307 307 308 308 308 309 309 310 310 310 311 311 312 312 312 312 312 312 311 312 311 312 313 313 316 316 315 320 321 320 318 319 313 316 312 313 315 315 316 315 316 319
307 307 307 307 308 308 308 308 309 309 309 310 310 311 311 312 313 313 314 313 312 311 311 311 312 313 314 314 314 317 320 319 317 317 318 315 316 314 315 315 316 315 315 315 318
307 307 307 307 308 308 308 308 308 309 309 309 310 311 311 312 315 314 314 314 314 313 311 311 312 313 315 314 314 313 318 313 314 313 314 315 314 313 315 317 317 317 316 315 318
307 307 307 308 308 308 308 308 308 308 308 309 309 310 311 313 313 313 312 311 312 313 311 312 313 314 315 316 313 315 312 313 315 314 314 315 314 314 314 318 315 315 315 315 315
307 308 308 308 308 308 308 309 309 309 309 309 309 309 310 312 314 315 310 310 311 312 312 312 313 314 315 315 314 314 314 313 314 313 313 312 314 315 314 315 314 315 315 315 315
308 308 308 308 309 309 309 309 309 309 309 309 309 310 310 311 312 317 314 310 311 311 312 312 312 313 314 314 315 314 314 314 314 314 313 315 315 314 316 315 315 315 315 315 315
309 309 309 309 309 309 309 309 309 309 309 309 309 310 310 310 311 315 316 313 311 312 312 313 313 314 313 315 312 312 316 315 314 314 315 313 315 316 316 315 314 314 315 315 315
310 309 310 310 310 310 310 309 309 309 309 309 309 309 309 310 310 314 316 314 312 313 313 313 313 314 314 312 314 315 316 317 315 313 314 314 318 317 312 313 315 315 315 315 315
315 312 310 309 309 309 309 309 308 308 308 309 309 309 309 309 310 312 315 315 313 312 313 313 313 313 313 317 317 316 317 317 316 313 314 315 318 317 312 312 314 314 314 314 315
320 319 317 314 309 307 307 307 310 316 316 314 310 309 309 310 311 312 314 315 315 314 313 313 313 315 315 317 315 317 317 315 316 314 313 316 316 317 315 312 314 316 315 314 314
321 321 321 319 315 309 315 316 317 316 315 312 308 308 310 310 311 312 314 315 314 313 316 311 316 317 317 316 314 314 315 315 315 313 314 317 317 317 316 315 315 315 315 316 316
316 322 322 321 322 320 321 322 320 318 319 320 319 317 313 312 311 312 313 314 313 315 312 314 315 316 312 312 313 314 316 316 315 312 313 316 316 316 316 315 316 316 316 316 316
315 315 321 321 321 320 320 321 321 320 317 318 319 319 319 316 315 314 313 313 313 312 313 314 315 311 312 312 313 314 316 315 315 313 312 314 316 317 316 314 314 314 315 315 316
315 318 318 319 320 321 320 321 321 317 321 319 312 314 315 314 313 312 313 313 311 314 312 314 312 312 312 313 314 315 313 314 314 315 316 313 315 316 316 316 315 315 316 315 315
312 313 315 318 318 319 320 319 321 314 328 315 310 311 311 314 311 311 311 312 314 313 313 314 312 312 314 314 313 315 311 313 313 316 315 315 316 315 314 315 316 316 316 316 316
309 309 314 316 317 318 318 320 317 319 325 317 311 313 311 310 310 310 311 311 310 312 311 312 309 312 314 310 311 310 313 313 314 316 317 316 315 315 316 316 316 315 315 315 315
307 309 310 314 315 317 318 315 317 320 316 317 314 312 312 312 311 312 312 312 314 314 314 312 312 310 310 313 311 313 316 316 318 319 318 313 315 315 315 314 314 315 315 314 313
299 306 308 312 314 314 315 314 320 319 319 312 313 311 313 312 311 311 313 314 312 311 312 314 313 312 312 314 315 314 315 316 319 317 315 310 315 316 315 313 312 312 314 313 313
297 297 305 310 312 313 314 314 316 315 315 315 314 315 315 313 312 311 312 313 314 312 312 312 312 309 309 311 314 313 314 314 315 307 313 314 315 315 314 312 312 313 314 314 314
297 296 297 305 310 312 313 313 313 313 312 313 317 316 317 316 313 312 312 312 312 312 312 312 312 310 309 310 310 312 313 315 314 320 318 314 314 316 316 316 316 314 313 313 313
299 297 297 303 307 310 312 312 312 312 312 314 316 316 316 315 314 312 313 312 310 310 312 313 312 312 310 312 313 312 313 313 313 315 317 317 315 315 315 316 314 314 312 313 314
298 299 301 304 307 308 309 310 309 311 312 313 314 315 316 315 315 316 316 313 309 310 312 312 313 315 314 310 310 312 314 314 315 316 314 315 317 311 314 314 312 313 313 315 314
298 298 302 305 305 307 305 307 308 309 311 313 313 314 313 314 315 316 316 312 310 311 313 312 315 318 317 313 309 311 312 312 314 313 319 319 317 313 312 312 313 312 314 315 315
298 300 298 303 303 303 304 305 306 306 308 309 310 312 313 314 313 314 314 312 309 309 310 312 314 317 320 317 314 313 312 313 314 316 316 316 316 316 315 314 313 313 313 314 315
298 299 299 301 302 303 303 302 304 304 306 306 307 308 311 312 313 314 312 310 309 309 311 313 315 315 316 316 313 314 314 313 313 314 316 316 316 316 315 315 314 314 313 313 314
298 299 297 298 299 301 302 303 304 303 303 303 305 306 307 308 308 309 308 309 311 309 308 311 312 314 315 316 316 316 314 313 313 314 314 315 316 316 315 314 315 313 312 312 313
298 298 298 299 300 300 301 301 302 303 303 304 305 305 305 305 306 306 304 304 305 307 310 311 311 312 314 315 315 316 315 316 315 314 315 316 316 315 315 315 314 314 313 312 313
Wind_Speed
12 12 11 9 8 7 7 5 5 4 4 3 3 3 3 3 3 4 5 6 5 7 6 6 5 6 7 6 4 5 4 6 4 6 3 9 10 6 7 4 7 9 4 5 18
11 11 10 9 8 7 7 6 4 3 3 3 3 3 2 3 4 5 6 6 6 6 7 7 6 7 3 4 2 3 4 5 1 3 3 10 11 9 6 8 7 9 13 8 18
10 9 9 9 8 8 7 5 4 4 4 3 2 2 2 3 5 5 7 6 6 6 7 7 7 6 3 3 1 2 6 2 3 2 2 7 8 8 9 8 14 16 13 15 17
9 9 9 8 8 7 7 6 6 5 3 2 2 1 2 5 4 5 5 5 7 8 8 7 6 5 4 4 2 3 1 3 4 3 3 4 4 7 14 12 7 13 11 17 19
10 9 8 8 7 7 6 6 6 4 4 3 2 2 4 4 4 5 4 4 6 8 9 9 7 5 4 4 4 2 4 3 2 3 4 4 8 9 14 18 16 10 12 17 20
12 11 10 9 8 8 7 5 4 3 2 3 3 3 4 5 5 7 4 4 5 7 9 9 6 5 7 3 2 1 3 2 2 3 3 4 5 4 7 17 18 21 18 17 20
13 13 12 11 10 9 8 7 5 4 2 2 2 2 4 4 7 7 6 5 6 7 8 7 8 4 7 6 4 2 2 3 6 3 2 2 8 16 15 9 13 21 21 22 22
13 13 13 13 12 11 10 9 7 5 4 3 2 2 3 6 8 8 8 7 7 7 8 8 8 8 3 10 3 1 1 3 3 3 1 5 12 5 7 13 19 18 18 21 24
10 11 10 12 13 12 10 9 8 7 5 4 3 2 2 5 8 9 10 9 8 8 7 7 7 4 5 4 2 1 4 6 3 4 1 8 8 4 5 8 15 17 20 23 27
8 8 8 8 8 10 9 8 6 5 6 5 6 2 4 4 5 9 11 11 8 9 7 4 3 2 2 6 7 6 5 4 6 3 4 9 17 17 15 11 16 17 18 19 26
12 10 9 8 7 8 6 6 3 1 4 3 2 2 6 6 4 5 11 10 9 6 6 2 5 9 15 9 1 3 2 5 3 1 4 12 19 18 23 22 24 26 28 28 32
11 13 13 10 8 7 4 4 2 1 5 9 11 12 9 7 4 7 10 8 5 6 7 4 9 13 5 7 5 5 9 12 7 2 5 12 22 19 23 28 26 29 31 31 32
17 17 13 14 10 9 8 5 2 2 3 7 13 13 17 15 10 15 16 10 4 5 11 12 4 7 8 7 9 9 12 9 9 1 7 10 16 15 10 19 23 31 33 34 36
14 13 13 8 9 10 6 5 3 3 4 5 6 6 10 9 6 14 22 9 5 12 7 8 3 5 8 9 12 14 12 9 6 4 6 2 10 18 17 17 15 25 27 32 33
11 10 12 14 9 4 9 11 10 5 5 4 3 3 9 9 6 6 21 9 10 9 8 6 10 12 11 8 13 3 5 7 2 5 5 9 7 8 4 13 16 24 28 28 28
11 11 14 12 12 9 4 9 13 2 7 3 3 4 5 1 2 4 8 3 4 5 2 1 1 5 4 3 4 12 7 5 3 1 8 10 10 10 11 8 5 7 11 13 15
12 11 12 14 14 10 14 15 2 4 1 4 3 3 2 6 4 3 7 11 9 8 14 5 8 3 4 6 4 4 8 3 5 5 10 3 6 15 7 11 10 13 24 15 13
9 14 12 14 14 14 15 2 7 6 9 1 3 4 4 7 2 4 6 9 11 3 2 11 11 13 10 15 9 12 10 7 7 5 8 2 10 8 10 13 22 23 27 24 25
8 10 15 18 17 17 13 6 8 10 4 7 4 3 4 3 2 5 8 9 10 15 12 8 7 1 3 5 13 7 11 10 7 0 4 10 20 21 15 16 20 26 26 24 21
5 6 11 18 21 17 5 11 11 4 5 3 12 9 8 8 8 9 10 4 7 17 19 3 7 1 3 3 1 10 7 5 5 6 10 14 15 15 6 11 10 7 13 16 19
3 2 7 18 21 12 9 7 7 8 6 6 8 7 6 6 10 6 4 3 5 4 20 9 4 3 4 10 13 6 12 5 3 5 6 9 12 11 14 9 7 7 9 10 7
5 2 9 26 9 8 12 10 16 13 11 11 5 7 8 5 7 7 10 7 6 11 10 8 1 8 13 0 5 10 19 22 8 8 5 8 15 2 5 3 7 10 10 4 8
6 4 8 27 8 10 8 14 12 6 10 7 11 11 6 12 7 12 11 5 9 8 9 8 5 4 6 3 2 8 12 12 21 1 12 12 13 1 7 12 4 6 6 7 6
8 3 6 21 11 10 13 14 14 12 15 9 6 7 7 7 8 3 5 3 4 6 9 3 6 10 15 12 3 8 17 19 18 9 20 19 27 28 16 9 11 17 18 13 11
16 6 8 7 13 11 12 7 17 12 11 14 11 17 13 6 10 9 11 2 6 14 5 2 6 16 25 23 11 8 11 22 22 28 22 29 26 35 26 21 28 33 39 31 35
11 8 7 2 10 16 13 14 17 11 10 14 15 9 5 18 21 19 17 14 8 5 4 6 4 3 19 24 19 22 16 14 24 28 24 30 29 33 37 34 28 29 25 27 33
18 20 9 11 7 11 17 22 11 13 9 14 9 4 10 14 4 8 6 10 8 3 2 3 6 4 14 17 14 16 25 26 23 23 23 23 32 26 24 21 27 29 28 36 39
Wind_Direction
180 179 179 179 179 176 173 176 173 181 178 181 185 198 198 201 216 200 189 183 187 182 187 182 172 169 160 152 140 137 223 237 225 195 201 163 192 186 204 200 198 205 199 208 184
184 183 183 179 179 180 173 173 175 188 192 198 202 207 196 194 194 201 200 186 192 182 186 188 176 161 131 126 125 190 230 230 176 227 236 183 198 184 185 200 227 230 222 200 188
190 188 187 182 181 179 178 176 170 181 196 194 206 212 190 178 180 203 200 190 198 189 189 188 177 165 117 129 132 155 244 160 190 224 259 196 212 183 207 212 220 221 216 216 197
193 193 190 190 189 185 180 176 181 186 174 167 187 183 184 178 219 181 184 187 193 190 188 179 180 143 133 172 128 205 159 170 139 202 216 219 191 207 215 226 211 224 217 224 215
190 199 202 197 198 195 199 195 196 180 173 150 140 167 173 179 186 168 149 168 180 184 188 182 180 152 153 150 128 202 163 178 172 189 232 232 236 236 239 234 233 229 226 227 225
195 200 207 208 210 210 209 219 222 211 182 161 159 159 170 192 191 180 157 150 163 173 180 169 189 173 116 125 185 103 180 190 207 202 244 253 259 244 250 232 236 237 237 235 234
208 209 214 218 222 222 223 221 224 237 236 212 186 183 190 198 187 184 184 168 148 156 163 156 153 136 136 126 119 101 239 276 224 187 235 248 246 240 244 237 228 236 237 237 238
218 221 219 226 227 235 236 233 230 231 239 242 258 253 187 181 189 180 181 177 156 152 152 144 142 128 83 122 75 162 221 234 132 182 197 194 261 258 233 239 246 244 241 242 239
217 215 218 227 228 226 233 236 234 232 238 239 244 229 210 199 203 189 180 181 163 158 146 141 147 107 120 166 181 209 238 224 273 186 205 219 273 273 268 238 256 252 250 247 248
213 221 206 211 221 215 218 220 221 239 247 242 230 249 214 189 185 190 182 169 155 152 135 150 97 161 147 196 233 206 218 223 248 134 221 241 253 266 262 251 259 265 264 256 253
216 212 221 204 181 179 166 166 213 229 210 219 189 154 129 151 160 197 185 181 155 157 178 91 204 214 227 221 234 124 209 247 236 147 261 255 266 267 270 268 262 262 259 256 255
265 210 218 215 187 184 184 124 24 334 303 267 254 248 237 219 203 183 180 173 170 181 135 163 226 232 107 169 190 215 253 257 279 199 231 278 277 276 265 260 257 260 258 254 255
253 252 214 234 245 248 252 274 299 329 275 264 239 239 234 234 224 209 186 174 149 159 199 215 187 166 177 177 201 225 235 248 264 323 235 291 272 262 259 256 260 257 256 257 254
213 236 253 222 248 251 261 276 247 139 263 232 217 220 209 186 238 207 191 182 177 201 181 244 194 171 183 211 202 241 213 235 255 285 272 272 288 280 276 264 248 259 255 257 258
198 195 208 205 241 248 248 248 186 156 255 107 166 191 170 184 150 187 186 201 183 170 173 203 181 195 214 221 190 237 131 180 179 242 306 213 256 260 263 269 256 251 255 257 263
197 196 187 178 182 185 175 157 149 111 219 193 138 154 152 160 106 106 170 169 145 138 249 286 354 192 201 95 182 139 95 78 83 242 264 243 230 261 253 248 277 261 264 269 271
218 202 189 183 191 161 160 149 112 210 9 173 169 171 189 172 162 170 172 185 182 185 223 184 215 177 168 116 92 209 170 207 223 198 249 82 238 250 263 260 242 273 288 286 275
239 216 198 187 184 192 177 125 203 209 206 110 118 110 196 159 196 160 160 208 227 193 149 210 233 185 183 214 180 197 200 212 229 214 262 110 239 259 234 268 276 269 267 270 274
253 226 208 189 193 186 178 213 218 226 173 180 142 181 197 194 227 185 216 235 214 200 207 192 241 187 219 181 182 179 217 249 267 138 293 250 264 273 239 257 242 256 264 273 276
265 236 219 197 193 189 190 226 221 208 134 178 214 205 230 204 195 197 188 220 224 202 214 221 256 175 148 154 224 213 152 190 213 227 236 252 259 256 279 294 272 254 270 283 278
272 225 198 183 183 191 218 221 248 214 211 225 219 241 224 193 204 189 245 247 213 185 204 221 245 140 163 205 182 185 215 218 235 220 245 258 255 259 256 261 281 304 308 302 299
179 218 181 167 169 199 218 210 232 218 220 238 251 248 226 214 213 225 230 228 164 145 168 207 254 252 233 193 249 237 226 210 216 211 244 267 263 162 255 246 302 319 310 288 297
200 228 189 173 198 207 213 227 236 210 209 198 223 221 225 245 255 235 245 227 211 179 175 176 178 240 259 213 210 228 215 222 227 46 224 227 253 132 264 266 298 288 326 274 284
176 195 202 206 224 225 208 222 220 219 232 223 248 219 211 226 242 284 317 350 295 241 326 339 185 222 238 245 120 208 225 214 205 220 236 236 250 259 241 259 262 274 288 286 285
195 215 187 197 219 210 209 222 217 217 213 211 239 232 224 241 215 222 227 249 300 314 357 297 236 235 247 257 255 249 221 215 215 226 223 246 240 257 257 256 260 275 282 284 278
194 188 193 211 205 199 211 223 221 208 210 219 240 212 196 240 246 267 274 256 229 219 225 208 244 272 254 256 251 255 257 239 220 230 239 246 254 251 262 262 264 263 266 272 275
209 207 189 199 179 186 214 225 215 208 227 232 223 179 228 246 261 266 277 282 280 311 276 224 182 210 263 260 256 243 239 242 246 240 236 239 244 263 266 261 262 265 259 259 265